Regional Weather Roundup
Issued by NWS Kansas City/Pleasant Hill, MO

Home | Current Version | Previous Version | Text Only | Print | Product List | Glossary On
Versions: 1 2 3 4 5 6 7 8 9 10 11 12 13 14 15 16 17 18 19 20 21 22 23 24 25 26 27 28 29 30 31 32 33 34 35 36 37 38 39 40 41 42 43 44 45 46 47 48 49 50
000
ASUS43 KEAX 062004
RWREAX

WEATHER ROUNDUP FOR EASTERN KANSAS AND NORTHWEST MISSOURI
NATIONAL WEATHER SERVICE KANSAS CITY/PLEASANT HILL MO
300 PM CDT WED MAY 06 2015

KSZ040-057-103>105-MOZ028-029-037-043-062100-
...KANSAS CITY METROPOLITAN AREA...

CITY           SKY/WX    TMP DP  RH WIND       PRES   REMARKS
K.C. INTL      PTSUNNY   73  60  63 S25       29.93F
K.C. DOWNTOWN  PTSUNNY   73  57  57 S17G35    29.94S
LEES SUMMIT    CLOUDY    70  60  70 S13G23    29.97R
OLATHE - IXD   LGT RAIN  64  59  83 S17G28    29.96S
OLATHE - OJC   LGT RAIN  65  58  78 S18G36    29.96R
LAWRENCE       LGT RAIN  66  59  78 S21G31    29.93R

$$

MOZ001>008-011>017-020>025-030>033-038>040-044>046-053-054-062100-
...NORTHERN AND CENTRAL MISSOURI...

CITY           SKY/WX    TMP DP  RH WIND       PRES   REMARKS
ST. JOSEPH     CLOUDY    73  60  63 S16       29.91F
MOSBY          MOCLDY    73  59  60 S13G23    29.96F
WHITEMAN AFB   NOT AVBL
CLINTON        CLOUDY    72  64  78 SE12G18   30.00F
SEDALIA        LGT RAIN  70  63  78 SE12      30.01F
WARSAW         NOT AVBL
MARSHALL       CLOUDY    72  63  73 S17G23    30.01F
CHILLICOTHE      N/A     72  60  66 S16G24    29.98F
MOBERLY        CLOUDY    75  54  46 SW10G16   30.03F
KIRKSVILLE     CLOUDY    74  60  61 SW14G22   30.02F

$$

MOZ041-047>049-056>058-063>065-088>090-097-062100-
...EASTERN AND SOUTHERN MISSOURI...

CITY           SKY/WX    TMP DP  RH WIND       PRES   REMARKS
ST. LOUIS INTL MOSUNNY   86  49  27 S17G25    30.06F
SPIRIT OF STL  MOSUNNY   84  52  33 SE13G20   30.03F
COLUMBIA       CLOUDY    78  58  49 S9G25     30.02F
JEFFERSON CITY PTSUNNY   80  55  42 S15       30.01F
HANNIBAL       PTSUNNY   81  54  39 S12G17    30.03F
ROLLA          MOSUNNY   81  56  42 S18G28    30.03F
LEBANON        CLOUDY    77  55  47 S14       30.04F
OSAGE BEACH    CLOUDY    81  55  41 S10       30.02F
SPRINGFIELD    MOSUNNY   77  61  57 S21G26    30.01F
BRANSON        PTSUNNY   77  57  50 S12       30.05F
NEVADA         PTSUNNY   75  61  60 SE20      29.97F
JOPLIN         SUNNY     78  58  49 S17G31    29.94F
WEST PLAINS    MOSUNNY   78  54  43 S15G22    30.07F

$$

IAZ060-094-KSZ022-034>040-054-083-096-NEZ052-066-093-062100-
...KANSAS...SOUTHEAST NEBRASKA AND IOWA...

CITY           SKY/WX    TMP DP  RH WIND       PRES   REMARKS
TOPEKA         CLOUDY    71  60  68 SE23G40   29.89F
MANHATTAN      CLOUDY    71  63  75 S21G33    29.81F
EMPORIA        CLOUDY    67  62  84 S23G31    29.87F
CHANUTE        CLOUDY    71  63  75 S14       29.92F
WICHITA        CLOUDY    74  66  76 S24G33    29.79F
OMAHA          CLOUDY    70  61  73 S24G32    29.83S
LINCOLN        CLOUDY    70  61  73 S35G43    29.79F
FALLS CITY     CLOUDY    71  61  70 S20G30    29.86F
LAMONI         LGT RAIN  68  60  75 S16G24    29.97R
DES MOINES     CLOUDY    77  57  50 S20G31    29.92F

$$




USA.gov is the U.S. government's official web portal to all federal, state and local government web resources and services.